Location: Gadern
(49.5873°N, 8.8138°E)
Time: 10:03:47
(UTC+00:00)

Cosmos 1766 - Pass Details

Date: 19 May 2025
Orbit: 443 x 456 km, 82.5° (Epoch: 23 June)

Event Time Altitude Azimuth Distance (km) Brightness Sun altitude
Rises 23:03:26 0° 339° (NNW) 2,463 8.0 -20.3°
Reaches altitude 10° 23:05:44 10° 326° (NNW) 1,582 6.5 -20.3°
Maximum altitude 23:08:37 25° 269° (W) 938 4.5 -20.4°
Enters shadow 23:08:47 25° 264° (W) 940 4.4 -20.4°
